| time (UTC) | temp C | wind direction | speed KPH | gust KPH | rain 1hr cm | rain 24hr cm | rain mn cm | humidity % | barometer mb |
| 20260507165903 | 5 | 152 | 0.0 | 8.0 | 0.00 | 0.79 | 0.56 | 92 | 1017.8 |
| 20260507164400 | 5 | 158 | 3.2 | 6.4 | 0.00 | 0.79 | 0.56 | 91 | 1017.5 |
| 20260507161407 | 6 | 105 | 0.0 | 6.4 | 0.00 | 0.79 | 0.56 | 91 | 1017.5 |
| 20260507155900 | 6 | 111 | 6.4 | 11.3 | 0.00 | 0.79 | 0.56 | 90 | 1017.5 |
| 20260507152911 | 6 | 88 | 4.8 | 9.7 | 0.03 | 0.79 | 0.56 | 91 | 1017.5 |
| 20260507151407 | 6 | 290 | 1.6 | 9.7 | 0.03 | 0.79 | 0.56 | 91 | 1017.3 |
| 20260507145856 | 6 | 100 | 4.8 | 11.3 | 0.05 | 0.79 | 0.56 | 92 | 1017.3 |
| 20260507144351 | 6 | 19 | 4.8 | 14.5 | 0.05 | 0.76 | 0.53 | 91 | 1017.3 |
| 20260507141403 | 6 | 53 | 6.4 | 12.9 | 0.10 | 0.76 | 0.53 | 91 | 1017.5 |
| 20260507135859 | 7 | 50 | 6.4 | 12.9 | 0.10 | 0.74 | 0.51 | 91 | 1017.6 |
| 20260507132910 | 5 | 93 | 3.2 | 12.9 | 0.10 | 0.79 | 0.46 | 93 | 1017.9 |
| 20260507131409 | 5 | 214 | 0.0 | 6.4 | 0.10 | 0.76 | 0.43 | 93 | 1017.9 |
| 20260507125858 | 3 | 72 | 1.6 | 9.7 | 0.13 | 0.74 | 0.43 | 94 | 1018.1 |
| 20260507122908 | 2 | 161 | 3.2 | 11.3 | 0.23 | 0.74 | 0.36 | 94 | 1018.1 |
| 20260507115913 | 3 | 166 | 1.6 | 8.0 | 0.20 | 0.69 | 0.30 | 94 | 1017.7 |
| 20260507114409 | 3 | 302 | 1.6 | 4.8 | 0.15 | 0.69 | 0.23 | 94 | 1017.8 |
| 20260507111411 | 5 | 350 | 1.6 | 9.7 | 0.00 | 0.53 | 0.10 | 94 | 1017.4 |
| 20260507105900 | 5 | 283 | 0.0 | 8.0 | 0.00 | 0.53 | 0.10 | 94 | 1017.4 |
| 20260507102904 | 6 | 83 | 3.2 | 8.0 | 0.00 | 0.56 | 0.10 | 93 | 1017.3 |
| 20260507095904 | 6 | 103 | 1.6 | 14.5 | 0.00 | 0.56 | 0.10 | 91 | 1017.5 |
| 20260507094358 | 7 | 43 | 4.8 | 9.7 | 0.00 | 0.61 | 0.10 | 93 | 1017.5 |
| 20260507092853 | 6 | 130 | 0.0 | 4.8 | 0.03 | 0.61 | 0.10 | 93 | 1017.3 |
| 20260507085905 | 6 | 146 | 1.6 | 8.0 | 0.03 | 0.61 | 0.10 | 92 | 1017.3 |
| 20260507084400 | 6 | 124 | 3.2 | 12.9 | 0.03 | 0.61 | 0.10 | 91 | 1017.2 |
| 20260507082854 | 7 | 51 | 3.2 | 11.3 | 0.03 | 0.61 | 0.08 | 88 | 1017.1 |
| 20260507080226 | 6 | 109 | 1.6 | 8.0 | 0.03 | 0.61 | 0.08 | 91 | 1016.9 |
| 20260507073919 | 4 | 95 | 3.2 | 8.0 | 0.03 | 0.61 | 0.05 | 94 | 1016.9 |
| 20260507070056 | 2 | 152 | 0.0 | 0.0 | 0.03 | 0.61 | 0.05 | 94 | 1016.8 |
| 20260507064406 | 3 | 152 | 0.0 | 0.0 | 0.03 | 0.97 | 0.05 | 94 | 1016.4 |
| 20260507061400 | 3 | 288 | 0.0 | 8.0 | 0.03 | 0.97 | 0.05 | 93 | 1016.6 |
| 20260507054404 | 2 | 204 | 0.0 | 8.0 | 0.00 | 1.09 | 0.03 | 93 | 1016.4 |
| 20260507052900 | 2 | 70 | 0.0 | 6.4 | 0.00 | 1.09 | 0.03 | 93 | 1016.3 |
| 20260507045908 | 0 | 336 | 0.0 | 0.0 | 0.00 | 1.09 | 0.03 | 93 | 1016.2 |
| 20260507044405 | 0 | 314 | 0.0 | 1.6 | 0.00 | 1.09 | 0.03 | 93 | 1016.1 |
| 20260507042855 | 0 | 315 | 0.0 | 0.0 | 0.00 | 1.09 | 0.03 | 93 | 1015.9 |
| 20260507035905 | -1 | 315 | 0.0 | 0.0 | 0.00 | 1.09 | 0.03 | 94 | 1015.5 |
| 20260507034401 | 0 | 315 | 0.0 | 0.0 | 0.00 | 1.09 | 0.03 | 93 | 1015.5 |
| 20260507032859 | -1 | 315 | 0.0 | 0.0 | 0.00 | 1.09 | 0.03 | 93 | 1015.6 |
| 20260507025905 | 0 | 315 | 0.0 | 3.2 | 0.00 | 1.09 | 0.03 | 93 | 1015.7 |
| 20260507024401 | -3 | 315 | 0.0 | 3.2 | 0.00 | 1.09 | 0.03 | 94 | 1015.5 |
| 20260507022855 | -3 | 317 | 0.0 | 0.0 | 0.00 | 1.09 | 0.03 | 94 | 1015.6 |
| 20260507015908 | -2 | 317 | 0.0 | 0.0 | 0.00 | 1.09 | 0.03 | 94 | 1015.6 |
| 20260507014404 | -1 | 317 | 0.0 | 0.0 | 0.00 | 1.09 | 0.03 | 94 | 1015.6 |
| 20260507011351 | -1 | 317 | 0.0 | 1.6 | 0.00 | 1.09 | 0.03 | 94 | 1015.6 |
| 20260507004403 | 0 | 317 | 0.0 | 0.0 | 0.00 | 1.09 | 0.03 | 94 | 1015.5 |
| 20260507002900 | 0 | 317 | 0.0 | 0.0 | 0.00 | 1.09 | 0.03 | 94 | 1015.5 |
| 20260506235856 | 0 | 33 | 0.0 | 3.2 | 0.00 | 1.09 | 0.03 | 94 | 1015.5 |
| 20260506232905 | 1 | 33 | 0.0 | 0.0 | 0.00 | 1.09 | 0.03 | 94 | 1015.3 |
| 20260506231402 | 1 | 33 | 0.0 | 3.2 | 0.03 | 1.09 | 0.03 | 93 | 1015.5 |
| 20260506224407 | 2 | 51 | 3.2 | 4.8 | 0.03 | 1.09 | 0.03 | 93 | 1015.3 |
| 20260506222900 | 3 | 103 | 4.8 | 9.7 | 0.03 | 1.09 | 0.03 | 93 | 1015.3 |
| 20260506215917 | 3 | 88 | 3.2 | 9.7 | 0.05 | 1.09 | 0.00 | 93 | 1015.4 |
| 20260506212901 | 3 | 69 | 1.6 | 11.3 | 0.03 | 1.07 | 1.07 | 93 | 1015.5 |
| 20260506211352 | 3 | 63 | 4.8 | 9.7 | 0.05 | 1.07 | 1.07 | 93 | 1015.6 |
| 20260506204404 | 3 | 104 | 0.0 | 3.2 | 0.05 | 1.04 | 1.04 | 93 | 1015.4 |
| 20260506202859 | 3 | 97 | 3.2 | 11.3 | 0.05 | 1.04 | 1.04 | 93 | 1015.2 |
| 20260506195911 | 3 | 80 | 0.0 | 8.0 | 0.05 | 0.99 | 0.99 | 93 | 1015.3 |
| 20260506194407 | 3 | 78 | 4.8 | 9.7 | 0.05 | 1.02 | 0.99 | 93 | 1015.1 |
| 20260506192858 | 3 | 103 | 1.6 | 8.0 | 0.10 | 0.99 | 0.99 | 93 | 1014.8 |
| 20260506185907 | 3 | 50 | 6.4 | 11.3 | 0.10 | 0.99 | 0.97 | 94 | 1014.5 |
| 20260506184403 | 3 | 99 | 0.0 | 3.2 | 0.08 | 0.97 | 0.94 | 94 | 1014.7 |
| 20260506181408 | 4 | 85 | 0.0 | 3.2 | 0.00 | 0.89 | 0.86 | 93 | 1014.1 |
| 20260506175902 | 4 | 85 | 0.0 | 6.4 | 0.00 | 0.89 | 0.86 | 93 | 1013.8 |
| 20260506174359 | 5 | 83 | 3.2 | 9.7 | 0.00 | 0.89 | 0.86 | 93 | 1013.9 |
| 20260506171405 | 4 | 103 | 0.0 | 6.4 | 0.00 | 0.89 | 0.86 | 93 | 1013.6 |